2020-079B (46828 NORAD) Tracking and Keplerian Element Data

This shows tracking and keplerian element data for the satellite.

Feedback or suggestion? Click here.




ElementValue
Catalog46828
Name2020-079B
Epoch Orbit308
Epoch Day331.26427594
Epoch Year2020
RAAN43.0742
Inclination97.2677
Eccentricity0.0008939
Argument of Perigee163.673
Mean Anonmoly281.0358
Mean Motion15.30963019
Decay Rate3.596E-05
L11 46828U 20079B 20331.26427594 .00003596 00000-0 12261-3 0 9992
L22 46828 97.2677 43.0742 0008939 163.6730 281.0358 15.30963019 3088

Live tracking and technical data element details for 2020-079B (NORAD 46828). 2020-079B can be tracked NOW for your location showing map with azimuth and elevation plus other details from your city location.

Track the satellite on the map from your city or location and see movement details for azimuth, elevation, latitude, longitude, range, height, and movement on the map or in text.







IsCatalogInMostPopularTable: catalog: 46828, numindb: 8
Update: records affected: 1



GetName: 46828 2020-079B

Hit Count: updated at: Thu, 26 Nov 2020 21:12:03 GMT